Wind_Speed
47 48 50 48 44 41 43 46 52 52 11 23 26 27 27 28 31 31 25 16 15 17 20 18 18 24 25 20 20 17 13 11 11 8 3 0 3 5 7 9 11 15 18 20 24 28 30 31 32 33 33 34 18 11
47 47 47 45 42 40 37 40 43 45 13 20 30 30 30 28 24 25 20 14 15 18 20 18 21 25 24 21 19 17 14 11 11 8 4 1 4 5 7 8 11 13 17 19 21 24 28 31 30 30 33 36 36 31
51 49 48 44 39 40 34 38 37 35 33 25 32 32 33 29 26 22 19 17 17 16 20 19 20 24 23 22 19 16 13 11 11 7 4 3 4 5 7 8 11 13 16 18 21 25 26 28 29 28 28 31 34 38
52 51 48 43 39 39 34 33 32 31 28 19 39 37 37 34 31 30 25 20 22 21 19 20 22 24 24 22 18 15 13 12 10 8 5 4 4 4 6 8 11 14 17 19 20 23 25 27 28 28 27 30 33 34
53 52 48 44 42 42 35 30 28 27 28 23 42 47 45 40 36 32 27 22 20 22 20 25 27 26 24 22 19 15 13 12 10 8 6 6 5 5 6 8 10 14 17 18 20 23 25 26 26 28 31 30 35 31
53 51 48 45 44 44 38 32 27 30 32 25 30 51 53 48 42 37 33 26 22 20 23 25 28 28 26 25 22 18 15 13 10 8 7 7 7 7 8 8 11 14 17 19 19 22 24 25 26 29 31 29 30 33
52 50 47 47 48 49 44 38 33 32 34 31 33 40 60 56 51 44 37 30 25 25 22 26 31 29 28 26 23 19 17 13 11 9 8 9 9 9 9 9 10 12 17 19 21 23 24 25 26 27 27 28 27 29
52 49 48 50 53 53 48 41 37 38 36 36 40 42 53 63 62 52 46 40 33 30 23 26 29 30 29 27 24 20 17 14 13 11 11 10 10 10 10 10 11 13 16 20 22 24 26 26 27 29 30 29 28 25
51 50 50 54 55 53 49 45 44 46 40 44 48 52 54 69 69 61 52 46 41 36 29 23 29 31 34 29 25 21 18 16 13 14 12 10 10 10 10 11 13 15 17 19 22 24 26 27 27 28 30 29 28 24
51 51 52 53 54 51 53 50 52 50 48 50 56 56 64 70 74 64 54 53 48 42 32 29 32 33 31 31 26 22 21 18 16 15 13 10 12 10 11 12 14 16 17 18 21 25 28 29 30 30 31 30 26 23
53 54 52 50 51 54 56 58 54 57 58 60 58 59 64 67 74 67 61 60 56 47 37 32 35 34 35 32 29 25 21 20 17 17 15 10 13 10 12 13 14 16 18 19 22 25 30 32 32 32 32 31 28 23
54 53 53 51 55 57 59 58 60 63 59 52 47 57 66 70 73 73 71 67 60 52 40 35 36 35 34 35 32 27 25 23 18 18 15 11 13 12 13 15 16 17 19 21 23 26 31 33 34 34 34 34 30 25
49 48 50 56 57 57 56 62 57 54 50 47 58 66 71 74 77 80 75 68 60 48 36 33 35 35 36 37 34 29 29 23 19 19 14 16 12 12 13 15 17 18 19 22 24 27 32 35 37 38 38 37 33 30
45 50 55 58 59 55 59 51 48 50 48 60 74 85 83 82 79 75 67 63 54 36 32 32 33 36 37 37 36 35 29 23 20 16 17 19 15 14 14 16 19 20 20 23 25 28 32 36 39 41 41 41 38 33
51 53 54 53 54 56 47 32 41 46 55 74 88 85 83 77 75 72 66 63 50 43 38 36 34 36 38 43 40 36 28 23 15 17 20 18 16 16 17 18 20 22 22 23 26 30 34 38 41 43 44 43 40 36
52 49 46 47 50 40 22 37 48 51 67 83 82 78 76 76 74 67 64 54 49 46 44 40 37 40 43 46 41 35 25 15 16 19 21 17 15 18 19 19 21 23 24 25 28 32 36 40 43 45 46 45 41 38
43 43 38 36 32 25 35 45 49 63 82 58 73 75 76 75 69 65 55 50 47 46 42 38 37 40 47 46 39 29 15 22 23 23 20 16 18 19 20 21 23 25 25 27 31 35 40 42 45 47 48 47 44 42
36 32 23 23 32 39 42 48 62 80 69 45 66 74 76 74 68 61 52 49 46 41 40 36 37 41 46 42 29 25 30 28 25 24 21 21 21 22 23 24 25 26 27 29 33 38 43 46 49 50 51 50 46 45
16 9 12 18 32 42 55 63 73 61 29 39 70 72 73 72 66 57 49 49 42 40 36 34 38 43 44 36 33 31 30 29 27 25 24 24 26 26 27 27 27 27 29 32 36 41 45 48 50 53 53 51 49 47
25 21 28 38 49 63 73 68 38 45 37 32 60 67 50 70 62 56 49 46 43 39 36 35 35 32 35 37 35 33 31 29 27 24 24 26 27 29 31 30 30 30 31 34 39 44 47 50 52 54 54 53 53 51
35 32 43 54 68 66 67 47 28 41 59 51 63 47 37 62 54 51 48 44 45 43 35 30 28 32 35 37 37 36 32 29 27 24 26 27 28 31 33 32 31 32 35 39 43 47 49 51 54 55 54 55 54 54
37 56 65 65 63 57 55 56 44 36 48 55 64 54 42 38 50 46 40 41 44 38 33 32 32 33 37 41 39 36 33 31 27 27 28 28 30 33 33 33 33 36 39 43 47 49 51 53 56 57 56 57 57 58
46 70 66 58 47 49 48 40 41 34 44 51 56 61 46 51 54 40 34 35 36 32 31 33 34 36 39 39 37 35 33 31 29 29 29 30 32 33 33 34 36 39 43 47 49 50 52 56 58 59 59 59 59 61
56 68 57 47 49 47 49 44 43 35 44 50 54 53 59 54 48 39 33 35 36 24 26 28 30 33 35 35 35 34 33 31 31 31 31 33 34 35 35 37 39 42 46 49 50 51 55 58 59 59 59 60 61 63
49 51 53 50 48 50 49 44 42 43 47 55 50 46 48 43 40 34 31 33 35 28 28 29 32 33 34 34 34 32 32 32 32 32 33 34 36 37 38 41 43 45 48 50 52 54 57 58 58 59 60 62 64 66
45 46 47 41 35 39 45 44 44 49 49 52 47 43 44 43 38 32 29 30 29 28 32 32 31 33 33 32 32 32 32 32 32 33 34 36 37 39 42 44 45 47 50 52 53 56 58 58 59 60 62 64 66 70
36 41 42 31 33 38 43 45 40 46 51 51 48 45 45 41 37 33 33 30 28 29 33 36 35 33 32 32 33 32 31 31 32 34 35 37 39 42 44 46 46 49 51 53 55 56 56 57 59 61 63 66 70 67
36 28 28 31 34 41 46 45 43 43 47 47 46 47 43 39 36 34 31 30 30 32 36 40 38 35 34 33 32 32 32 32 34 34 36 39 42 43 45 47 48 50 52 53 54 54 55 57 60 62 65 70 66 55
31 31 31 33 35 39 41 39 39 39 39 40 40 40 39 38 37 36 35 34 34 35 34 34 33 33 33 33 33 34 33 33 34 35 38 42 42 44 45 47 49 51 51 51 52 53 56 58 61 64 68 63 53 45
30 30 30 31 30 30 29 27 28 31 33 36 39 39 39 39 40 42 41 40 41 43 40 38 36 35 35 34 34 33 33 34 36 38 40 42 43 44 45 47 48 48 48 49 51 53 56 58 62 66 60 50 43 40
35 33 32 29 24 24 25 24 26 26 27 28 32 37 39 41 44 44 43 44 44 43 39 36 35 35 34 35 35 35 35 36 37 39 41 43 43 43 44 45 45 46 47 48 51 53 56 60 64 57 47 40 37 38
33 32 30 27 23 21 24 28 30 30 30 30 31 33 35 36 35 35 36 37 37 34 33 32 32 33 34 34 35 35 36 37 39 41 41 41 41 42 42 42 43 44 45 47 50 53 59 60 52 44 36 35 37 38
20 20 21 24 24 23 22 23 26 30 32 33 33 33 33 33 33 33 33 33 34 34 34 33 33 34 34 35 35 36 36 37 38 39 39 40 39 39 39 39 41 42 45 48 51 56 56 48 39 34 35 36 38 38
Wind_Direction
320 323 323 327 332 342 346 355 358 356 353 149 161 164 173 180 181 180 182 179 180 176 178 178 173 173 177 183 173 165 168 177 178 176 175 264 346 346 352 352 354 358 360 1 6 7 13 12 23 23 16 8 351 326
312 316 317 321 327 334 343 350 356 349 338 199 180 185 190 194 183 190 186 182 183 189 188 186 183 181 184 182 183 175 181 184 185 181 196 273 326 341 346 350 351 352 353 357 3 3 1 7 15 21 23 17 6 359
308 313 313 314 320 326 340 340 352 342 348 217 200 193 199 204 206 210 208 205 205 191 197 198 192 192 192 185 188 186 189 192 193 190 210 263 310 330 341 347 347 349 350 350 355 357 359 2 6 14 19 19 15 7
303 307 306 307 312 318 329 336 343 331 326 244 211 206 209 213 225 215 215 221 219 214 204 203 201 201 201 191 196 199 199 198 200 203 225 261 293 318 343 347 348 350 351 350 351 352 354 356 358 4 11 15 16 14
299 300 299 303 306 312 318 329 327 320 311 287 219 218 219 220 215 215 211 208 216 216 208 206 205 204 204 199 204 211 211 206 206 216 236 262 276 305 325 340 349 347 348 351 349 350 349 350 352 356 358 4 7 14
295 293 295 298 301 307 309 317 308 308 303 265 244 216 220 220 214 217 213 213 215 217 210 208 206 209 206 202 208 215 214 208 212 227 246 262 271 298 308 316 332 343 344 349 350 349 346 345 346 351 353 355 358 5
287 289 293 297 301 304 303 307 300 291 293 248 243 220 212 219 219 218 216 215 224 224 221 209 209 208 207 205 211 215 213 216 225 229 243 259 271 288 303 314 324 336 339 345 350 350 347 347 346 347 347 349 354 358
286 289 294 298 299 300 299 299 291 287 278 244 242 234 220 216 223 216 217 218 214 214 220 205 208 210 208 208 213 217 217 225 231 224 237 252 272 284 295 311 324 331 335 343 348 349 347 347 348 349 348 348 351 354
284 288 293 296 298 296 294 293 288 282 267 250 245 240 228 215 218 219 216 216 210 212 220 208 204 207 208 212 214 217 219 231 225 224 234 246 275 288 288 305 318 326 331 339 345 346 345 346 346 349 347 348 349 349
286 290 293 294 294 291 289 288 286 278 269 261 250 235 223 209 210 211 208 213 214 204 208 203 204 210 211 215 217 219 222 226 223 227 227 245 272 286 285 299 310 319 327 333 338 341 340 343 345 348 346 347 347 345
285 290 290 292 290 288 288 287 281 274 269 259 244 224 216 208 204 206 208 212 211 205 205 201 205 205 211 215 218 223 227 229 228 230 231 249 271 286 282 294 303 314 322 328 331 334 335 338 343 345 344 345 343 342
282 288 292 290 287 289 288 283 278 272 264 253 231 211 208 202 201 203 205 208 207 205 202 203 205 207 210 214 222 222 227 235 231 228 231 250 269 282 282 291 296 307 316 323 326 329 331 335 340 340 341 342 342 338
286 288 286 289 291 291 287 282 275 258 240 218 197 190 202 198 200 201 200 202 203 200 200 206 203 207 210 218 222 223 230 233 234 228 231 253 269 275 282 291 298 302 310 317 322 326 328 332 336 337 339 340 338 336
285 286 292 295 295 292 288 281 253 233 208 196 186 190 198 200 198 197 200 202 204 200 197 201 203 210 211 216 222 225 232 232 234 223 232 253 270 279 283 296 304 304 305 312 319 320 325 331 333 335 336 336 334 333
288 291 293 294 296 294 287 251 214 200 192 186 184 193 198 193 192 196 201 206 204 200 201 207 212 212 211 217 221 224 228 231 224 225 241 257 270 275 281 296 309 307 304 309 316 320 326 330 331 332 332 332 331 330
290 291 294 298 293 283 231 192 190 188 185 185 192 193 192 189 191 195 201 202 198 198 206 209 211 212 211 219 222 225 228 224 227 232 242 258 270 273 285 294 305 308 306 310 315 320 325 327 330 329 328 328 326 325
287 291 293 284 263 203 186 185 183 181 180 185 196 192 191 187 189 194 197 197 200 205 209 213 217 215 213 220 221 223 221 228 226 236 248 263 272 282 291 295 306 313 313 311 314 319 322 325 326 325 325 324 323 324
285 287 273 255 199 186 189 185 179 177 173 177 194 192 191 188 190 193 198 199 201 205 211 219 220 217 217 221 219 216 221 226 231 244 253 265 278 285 293 299 307 310 309 312 315 318 322 323 323 323 323 323 323 323
228 214 194 198 185 176 168 169 161 164 171 206 197 194 196 190 189 191 195 200 203 206 212 215 218 217 220 216 215 217 223 231 239 250 261 270 281 289 294 299 306 308 310 313 316 318 319 320 321 322 321 321 323 322
177 183 172 166 167 164 160 157 168 208 184 185 195 191 200 192 191 193 194 200 206 213 214 216 221 218 216 213 214 219 225 234 245 255 264 273 283 289 292 298 304 307 310 313 315 316 318 319 322 321 320 321 322 323
181 178 174 164 163 167 170 182 180 196 197 195 188 176 174 194 193 195 198 202 209 214 222 232 229 219 214 212 216 221 229 240 252 261 268 277 282 288 291 298 305 307 308 311 314 316 317 319 320 319 320 321 322 322
179 168 156 163 169 179 186 181 181 188 197 196 189 179 168 176 202 200 200 208 213 218 231 233 232 220 214 214 217 224 234 246 255 263 271 278 283 286 291 299 305 305 307 310 313 315 317 319 319 319 320 320 321 323
178 175 174 177 183 191 187 179 182 198 197 195 193 192 188 199 193 192 200 204 209 223 228 224 217 211 211 216 223 230 240 247 255 262 270 276 282 287 292 299 303 305 306 310 312 314 316 318 317 318 319 320 322 323
178 179 182 186 189 200 193 188 186 199 195 194 192 196 196 197 199 205 207 208 211 229 218 206 207 212 215 220 227 235 243 249 254 264 272 278 283 289 294 298 301 304 307 309 311 314 316 316 316 317 319 321 321 320
175 182 189 194 195 196 196 196 199 200 197 191 190 194 196 198 200 204 205 213 217 229 225 214 212 214 220 226 232 239 245 250 258 268 273 278 284 288 292 297 300 304 306 307 311 314 315 315 316 317 318 320 320 321
181 188 188 186 188 192 197 199 207 202 193 190 188 191 195 198 200 201 205 215 222 227 226 223 224 225 228 233 238 245 250 256 263 269 273 278 282 287 293 297 302 305 306 308 311 313 314 315 316 317 319 320 320 321
185 193 192 200 198 201 202 201 204 200 195 192 191 192 194 196 200 209 219 230 239 237 230 229 231 234 238 242 247 250 255 261 267 271 275 279 283 289 295 299 302 304 306 309 311 312 313 315 317 319 319 318 320 322
184 194 195 200 206 209 204 202 196 194 194 195 196 197 199 206 211 220 230 238 242 240 235 235 239 240 242 245 250 256 260 264 269 273 276 281 286 291 295 299 302 304 307 309 311 313 315 315 317 317 318 320 321 321
186 195 196 197 201 200 199 197 197 196 198 201 202 203 207 213 217 224 231 234 234 231 231 233 238 244 249 253 255 258 262 267 271 274 280 284 288 292 297 300 302 304 307 310 311 313 315 317 317 317 320 321 321 319
195 198 198 195 193 191 192 197 201 204 207 212 213 216 221 225 230 235 239 241 240 242 245 246 247 249 252 254 257 260 264 269 275 280 283 287 291 295 297 299 301 305 308 309 312 314 315 315 317 320 321 320 319 318
202 202 198 194 194 195 193 193 200 206 212 217 223 230 235 239 241 242 241 239 240 242 245 245 246 246 249 254 260 265 270 274 278 281 285 288 291 293 295 299 302 304 306 310 313 313 315 316 319 321 321 319 319 320
200 201 208 209 207 201 200 200 201 205 210 216 221 224 227 228 227 229 230 232 234 235 237 239 243 247 252 258 263 268 272 276 280 283 285 287 288 291 296 299 301 304 308 311 313 314 316 319 321 322 321 320 322 322
199 200 205 208 212 212 212 208 208 210 211 212 213 215 218 221 224 228 231 233 236 239 241 245 249 254 258 262 267 271 274 277 279 280 282 285 288 292 295 298 302 307 310 312 314 317 320 320 321 320 321 322 322 323
Height
5626 5622 5619 5615 5612 5611 5606 5601 5596 5592 5588 5584 5586 5584 5586 5590 5590 5589 5592 5596 5598 5600 5604 5605 5606 5610 5614 5619 5621 5624 5627 5629 5631 5633 5635 5635 5636 5636 5635 5634 5633 5630 5627 5624 5620 5615 5611 5606 5600 5597 5591 5581 5574 5571
5616 5613 5610 5607 5606 5606 5604 5597 5595 5592 5594 5594 5590 5593 5590 5592 5596 5599 5598 5599 5600 5602 5605 5606 5607 5612 5615 5618 5622 5623 5626 5628 5630 5632 5634 5634 5634 5634 5634 5633 5631 5629 5627 5624 5620 5615 5611 5606 5601 5595 5588 5581 5574 5568
5606 5604 5601 5599 5597 5597 5598 5594 5592 5590 5589 5593 5593 5591 5593 5595 5596 5599 5601 5602 5602 5602 5605 5607 5609 5613 5615 5618 5620 5623 5624 5626 5628 5630 5632 5632 5633 5633 5632 5631 5629 5627 5624 5621 5618 5614 5609 5605 5600 5594 5587 5583 5575 5569
5593 5592 5591 5589 5588 5588 5589 5587 5585 5586 5583 5585 5589 5589 5591 5593 5597 5598 5600 5601 5602 5603 5604 5607 5608 5612 5615 5617 5619 5621 5623 5625 5627 5628 5629 5631 5631 5631 5630 5629 5627 5625 5622 5619 5616 5612 5607 5603 5598 5593 5587 5580 5574 5568
5579 5578 5576 5577 5577 5577 5579 5579 5577 5577 5576 5575 5579 5584 5586 5588 5592 5594 5596 5599 5600 5601 5602 5603 5606 5609 5612 5615 5617 5620 5622 5623 5625 5626 5628 5629 5629 5629 5628 5627 5625 5622 5620 5617 5613 5609 5605 5601 5597 5591 5586 5580 5575 5570
5564 5562 5562 5563 5563 5564 5567 5567 5566 5566 5568 5564 5566 5572 5577 5581 5585 5588 5591 5595 5597 5597 5597 5599 5603 5606 5609 5611 5614 5617 5619 5621 5623 5624 5626 5626 5627 5627 5626 5624 5623 5620 5617 5614 5611 5607 5603 5598 5593 5587 5584 5579 5574 5568
5547 5546 5546 5548 5549 5550 5552 5553 5555 5553 5555 5554 5555 5557 5565 5571 5575 5580 5589 5594 5593 5594 5593 5594 5597 5602 5606 5608 5612 5614 5616 5618 5620 5621 5623 5623 5623 5623 5622 5621 5620 5617 5614 5610 5607 5604 5600 5595 5590 5585 5581 5577 5572 5566
5532 5531 5530 5531 5532 5532 5533 5534 5537 5538 5538 5542 5542 5546 5549 5555 5564 5571 5579 5583 5585 5587 5586 5588 5592 5599 5602 5605 5608 5611 5613 5615 5617 5618 5619 5620 5620 5619 5619 5618 5616 5614 5611 5608 5604 5601 5597 5591 5586 5581 5578 5574 5568 5564
5512 5511 5511 5511 5512 5511 5512 5514 5516 5518 5518 5521 5524 5526 5528 5536 5550 5561 5569 5574 5577 5580 5579 5584 5587 5593 5596 5600 5603 5606 5608 5611 5613 5613 5615 5617 5616 5616 5616 5614 5612 5611 5608 5604 5600 5597 5592 5587 5582 5578 5573 5569 5564 5561
5493 5492 5491 5490 5490 5489 5488 5490 5489 5491 5490 5494 5493 5499 5505 5518 5535 5546 5554 5561 5565 5567 5572 5576 5580 5586 5592 5595 5599 5602 5604 5606 5608 5610 5611 5612 5612 5612 5611 5610 5608 5607 5604 5600 5596 5592 5587 5583 5578 5573 5569 5564 5559 5556
5473 5472 5470 5467 5467 5466 5465 5463 5460 5460 5457 5457 5463 5475 5489 5502 5518 5527 5534 5544 5551 5557 5564 5571 5574 5579 5585 5590 5593 5596 5599 5601 5603 5605 5606 5608 5607 5608 5606 5606 5604 5602 5599 5596 5592 5588 5584 5579 5573 5568 5563 5559 5554 5550
5450 5450 5449 5446 5445 5442 5438 5435 5431 5428 5428 5436 5453 5464 5472 5481 5492 5501 5511 5527 5539 5548 5560 5565 5570 5574 5579 5583 5586 5590 5592 5595 5598 5599 5601 5603 5603 5603 5602 5601 5600 5597 5595 5591 5587 5583 5580 5574 5569 5563 5558 5553 5549 5544
5429 5427 5425 5425 5422 5417 5412 5409 5402 5400 5406 5420 5430 5445 5454 5464 5470 5478 5500 5520 5533 5545 5557 5562 5565 5567 5571 5575 5579 5583 5585 5590 5592 5594 5597 5598 5598 5598 5597 5596 5594 5591 5589 5586 5582 5578 5574 5569 5563 5558 5553 5548 5542 5538
5408 5405 5402 5399 5396 5391 5386 5380 5373 5377 5392 5401 5413 5426 5433 5443 5462 5489 5508 5522 5534 5549 5554 5555 5556 5558 5564 5568 5572 5575 5580 5582 5585 5590 5592 5591 5592 5592 5591 5590 5588 5586 5583 5580 5576 5573 5568 5563 5558 5553 5547 5542 5536 5531
5389 5382 5378 5373 5369 5363 5359 5355 5359 5369 5381 5391 5403 5411 5424 5445 5468 5487 5502 5513 5530 5538 5542 5545 5548 5551 5556 5559 5564 5569 5572 5576 5582 5584 5585 5585 5586 5586 5586 5584 5582 5580 5577 5574 5571 5567 5562 5557 5551 5546 5540 5534 5529 5524
5369 5364 5359 5351 5346 5342 5341 5348 5354 5365 5375 5391 5399 5411 5431 5448 5464 5481 5495 5509 5520 5525 5530 5533 5536 5542 5548 5552 5558 5563 5568 5575 5577 5577 5579 5580 5581 5580 5579 5578 5576 5573 5570 5567 5564 5560 5555 5550 5544 5539 5532 5526 5520 5515
5350 5347 5341 5337 5335 5336 5339 5345 5354 5364 5376 5391 5400 5418 5430 5446 5460 5474 5490 5501 5509 5516 5522 5526 5531 5536 5540 5544 5552 5560 5568 5567 5568 5571 5573 5574 5574 5573 5572 5570 5568 5566 5563 5560 5557 5552 5547 5542 5536 5530 5524 5517 5511 5506
5333 5330 5328 5327 5326 5330 5337 5345 5354 5363 5380 5390 5403 5417 5429 5441 5456 5470 5482 5492 5501 5509 5516 5520 5524 5528 5534 5540 5551 5556 5555 5557 5562 5564 5565 5566 5566 5565 5564 5563 5561 5558 5555 5552 5548 5544 5539 5533 5528 5522 5514 5509 5503 5497
5325 5325 5323 5324 5328 5334 5341 5350 5364 5374 5390 5400 5408 5417 5428 5439 5453 5464 5475 5485 5494 5503 5508 5511 5515 5521 5527 5535 5541 5545 5549 5552 5555 5557 5558 5558 5558 5557 5557 5555 5553 5550 5547 5543 5540 5535 5530 5524 5518 5512 5505 5499 5493 5486
5322 5324 5326 5327 5334 5341 5350 5365 5379 5382 5384 5394 5403 5422 5431 5439 5450 5460 5471 5480 5489 5496 5500 5505 5511 5516 5521 5528 5533 5538 5542 5545 5548 5550 5550 5550 5550 5549 5548 5547 5544 5541 5538 5534 5530 5525 5520 5514 5508 5501 5495 5489 5481 5476
5317 5320 5326 5333 5341 5349 5358 5364 5374 5378 5386 5394 5406 5418 5427 5438 5447 5458 5467 5475 5483 5489 5494 5499 5504 5508 5514 5520 5525 5530 5534 5537 5540 5541 5542 5541 5541 5540 5539 5538 5535 5532 5529 5525 5520 5515 5509 5504 5498 5491 5484 5477 5470 5462
5317 5323 5329 5338 5344 5350 5358 5365 5371 5376 5386 5396 5405 5412 5421 5432 5443 5453 5462 5469 5477 5483 5487 5492 5497 5501 5506 5511 5516 5522 5526 5529 5531 5532 5533 5533 5532 5531 5530 5528 5525 5522 5519 5515 5510 5504 5499 5493 5487 5480 5473 5465 5458 5450
5316 5324 5331 5338 5344 5349 5358 5365 5372 5378 5385 5393 5402 5410 5419 5428 5437 5447 5455 5463 5470 5476 5480 5484 5488 5492 5498 5504 5510 5515 5518 5521 5522 5523 5523 5523 5522 5521 5520 5517 5515 5512 5509 5504 5499 5493 5488 5482 5475 5468 5461 5453 5446 5438
5315 5324 5330 5335 5342 5348 5355 5362 5370 5376 5382 5390 5400 5409 5417 5426 5435 5443 5451 5457 5463 5468 5472 5476 5480 5487 5493 5498 5503 5506 5509 5512 5513 5514 5514 5514 5513 5512 5510 5508 5504 5501 5498 5493 5488 5481 5476 5469 5462 5456 5449 5441 5433 5424
5315 5321 5328 5333 5339 5347 5355 5363 5368 5373 5382 5391 5399 5408 5417 5425 5432 5438 5445 5452 5458 5464 5468 5472 5477 5482 5487 5491 5495 5498 5500 5502 5503 5504 5504 5504 5504 5502 5500 5497 5494 5490 5486 5482 5476 5470 5464 5457 5450 5444 5436 5428 5420 5410
5314 5319 5325 5334 5342 5348 5354 5362 5367 5374 5382 5390 5398 5406 5414 5421 5428 5434 5440 5446 5453 5458 5463 5467 5472 5476 5480 5483 5486 5489 5490 5492 5493 5494 5494 5494 5493 5492 5489 5486 5482 5479 5475 5469 5463 5457 5451 5445 5438 5431 5423 5416 5407 5399
5313 5323 5333 5339 5344 5350 5355 5362 5367 5373 5380 5388 5396 5403 5409 5416 5422 5430 5435 5441 5446 5449 5455 5461 5466 5469 5471 5475 5477 5479 5480 5481 5482 5483 5483 5483 5482 5480 5478 5475 5471 5468 5463 5457 5451 5445 5439 5433 5426 5418 5410 5402 5394 5383
5324 5328 5334 5340 5344 5350 5356 5362 5367 5373 5379 5386 5393 5399 5405 5412 5420 5426 5431 5435 5439 5444 5449 5454 5457 5460 5463 5466 5467 5469 5470 5471 5472 5472 5472 5472 5471 5468 5466 5463 5460 5455 5450 5444 5439 5433 5428 5421 5414 5406 5398 5388 5378 5369
5323 5327 5333 5338 5343 5349 5355 5360 5366 5373 5379 5385 5392 5398 5403 5408 5414 5420 5425 5429 5434 5438 5442 5445 5448 5451 5454 5455 5457 5458 5460 5461 5461 5462 5462 5461 5459 5457 5455 5452 5448 5444 5438 5433 5427 5422 5416 5409 5402 5394 5385 5375 5366 5359
5319 5324 5330 5336 5341 5348 5354 5359 5364 5370 5376 5382 5388 5393 5398 5403 5408 5414 5418 5422 5427 5431 5434 5437 5439 5441 5443 5446 5447 5449 5450 5450 5451 5451 5450 5450 5448 5446 5443 5440 5436 5431 5426 5421 5416 5411 5405 5398 5391 5382 5372 5363 5356 5351
5317 5323 5328 5333 5339 5344 5349 5355 5361 5366 5372 5377 5382 5387 5392 5397 5401 5405 5409 5413 5418 5421 5424 5426 5429 5432 5434 5437 5438 5439 5440 5440 5440 5440 5440 5439 5437 5434 5431 5428 5424 5419 5415 5410 5406 5400 5394 5387 5379 5369 5361 5355 5349 5343
5314 5320 5325 5330 5336 5341 5346 5352 5357 5362 5366 5371 5376 5381 5385 5389 5393 5397 5400 5404 5408 5411 5414 5417 5420 5422 5425 5427 5428 5429 5429 5430 5430 5429 5429 5427 5425 5423 5420 5416 5412 5408 5404 5400 5395 5389 5383 5375 5367 5360 5353 5348 5342 5337
5314 5318 5323 5328 5333 5338 5343 5347 5351 5356 5361 5365 5369 5374 5378 5382 5385 5389 5392 5396 5400 5403 5406 5408 5411 5413 5415 5416 5417 5418 5418 5419 5419 5419 5418 5417 5414 5412 5408 5405 5402 5399 5396 5391 5386 5380 5372 5365 5358 5352 5347 5342 5336 5330